www.pogodaiklimat.ru
ПОГОДА в Империале
Время
и дата
14:53 21.05
15:53 21.05
16:53 21.05
17:53 21.05
18:53 21.05
19:53 21.05
20:53 21.05
21:53 21.05
22:53 21.05
23:53 21.05
00:53 22.05
01:53 22.05
02:53 22.05
03:53 22.05
04:53 22.05
05:53 22.05
06:53 22.05
07:53 22.05
08:53 22.05
09:53 22.05
10:53 22.05
11:53 22.05
12:53 22.05
13:53 22.05
14:53 22.05
15:53 22.05
16:53 22.05
17:53 22.05
18:53 22.05
19:53 22.05
20:53 22.05
21:53 22.05
22:53 22.05
23:53 22.05
00:53 23.05
01:53 23.05
02:53 23.05
03:53 23.05
04:53 23.05
05:53 23.05
06:53 23.05
07:53 23.05
08:53 23.05
09:53 23.05
10:53 23.05
11:53 23.05
12:53 23.05
13:53 23.05
Ветер
(напр.,м/с)
Видим. Явления Облачность Т
(С)
Тd
(С)
f
(%)
Тe
(С)
Тes
(С)
Комфортность P
(гПа)
Po
(гПа)
Тmin
(С)
Tmax
(С)
R
(мм)
R24
(мм)
S
(см)
З 1 16 км ясно +31.7 +7.2 22 +30 +43 жарко 1008.0 1010.0
штиль 0 16 км ясно +31.7 +8.3 23 +31 +45 жарко 1007.8 1009.7 +26.1 +32.2
В 1 16 км ясно +31.7 +8.9 24 +31 +36 жарко 1007.7 1009.4
ЮВ 2 16 км ясно +31.1 +9.4 26 +30 +32 жарко 1007.7 1009.7
В 1 16 км ясно +30.0 +8.9 27 +29 +30 жарко 1008.1 1010.0
З 2 16 км ясно +24.4 +10.6 42 +26 +26 жарко 1008.8 1010.7
штиль 0 16 км ясно +23.9 +10.6 43 +25 +25 комфорт 1010.1 1012.1
З 1 16 км ясно +22.2 +10.0 46 +24 +24 комфорт 1010.5 1012.4 +21.7 +32.2
З 1 16 км ясно +21.7 +10.0 47 +23 +23 комфорт 1010.5 1012.4
СЗ 1 16 км ясно +21.7 +7.8 41 +23 +23 комфорт 1010.9 1012.8
ЮЗ 1 16 км ясно +20.6 +7.8 44 +22 +22 комфорт 1010.8 1012.8
ЮВ 1 16 км ясно +20.6 +7.2 42 +22 +22 комфорт 1010.5 1012.4
штиль 0 16 км ясно +20.6 +8.9 47 +22 +22 комфорт 1010.5 1012.4
С 1 16 км ясно +17.2 +10.6 65 +17 +17 1010.8 1012.8 +17.2 +22.2
С 1 16 км ясно +18.3 +8.9 54 +19 +19 1011.6 1013.4
штиль 0 16 км ясно +20.6 +10.0 51 +22 +22 комфорт 1012.4 1014.1
СЗ 1 16 км ясно +22.2 +13.3 57 +25 +26 комфорт 1012.4 1014.5
штиль 0 16 км ясно +24.4 +12.2 46 +26 +32 жарко 1012.5 1014.5
С 2 16 км ясно +27.2 +9.4 33 +28 +34 жарко 1012.5 1014.5
СЗ 1 16 км ясно +28.3 +10.0 32 +29 +40 жарко 1012.1 1014.1 +17.2 +28.3
нст 1 16 км ясно +28.9 +7.8 27 +28 +43 жарко 1011.6 1013.4
нст 1 16 км ясно +30.6 +8.9 26 +30 +51 опасность
солнечного
удара
1010.9 1012.8
нст 1
{4}
16 км ясно +31.7 +8.9 24 +31 +52 опасность
солнечного
удара
1010.1 1012.1
нст 1 16 км ясно +32.8 +7.8 21 +31 +47 жарко 1009.2 1011.1
нст 1 16 км ясно +33.3 +8.9 22 +32 +48 жарко 1008.4 1010.4
СЗ 1 16 км ясно +33.3 +9.4 23 +32 +41 жарко 1007.8 1009.7 +27.8 +33.3
ЮЗ 1 16 км ясно +33.3 +7.2 20 +32 +38 жарко 1007.5 1009.4
З 1 16 км ясно +32.8 +7.2 20 +31 +34 жарко 1007.3 1009.0
З 3 16 км ясно +28.3 +10.0 32 +29 +29 жарко 1007.5 1009.4
З 3 16 км ясно +26.7 +6.1 27 +26 +26 жарко 1008.1 1010.0
З 2 16 км ясно +24.4 +3.3 25 +24 +24 комфорт 1008.9 1010.7
З 2 16 км ясно +23.3 +5.0 30 +23 +23 комфорт 1008.8 1010.7 +23.3 +33.9
ЮЗ 1 16 км ясно +23.9 +3.3 26 +23 +23 комфорт 1008.7 1010.7
С 1 16 км ясно +23.3 +3.3 27 +23 +23 комфорт 1009.2 1011.1
ЮВ 1 16 км ясно +22.2 +14.4 61 +25 +25 комфорт 1008.4 1010.4
ЮВ 1 16 км ясно +21.7 +16.7 73 +26 +26 душно 1008.3 1010.0
ЮВ 1 16 км ясно +21.1 +16.1 73 +24 +24 комфорт 1008.0 1009.7
ЮВ 1 16 км ясно +21.1 +13.9 63 +24 +24 комфорт 1008.1 1010.0 +21.1 +24.4
ЮВ 1 16 км ясно +19.4 +12.8 66 +21 +21 комфорт 1008.4 1010.4
ЮВ 1 16 км ясно +21.1 +12.8 59 +23 +23 комфорт 1008.9 1010.7
ЮВ 1 16 км ясно +22.8 +13.3 55 +26 +27 жарко 1009.4 1011.4
штиль 0 16 км ясно +25.6 +13.9 48 +28 +34 жарко 1009.6 1011.4
штиль 0 16 км ясно +27.8 +12.8 40 +29 +42 жарко 1009.4 1011.4
В 1 16 км ясно +28.9 +10.6 32 +29 +41 жарко 1009.4 1011.4 +19.4 +29.4
З 1 16 км ясно +31.1 +7.8 23 +30 +48 жарко 1008.9 1010.7
В 1 16 км ясно +32.8 +8.3 22 +31 +49 жарко 1007.8 1009.7
нст 1 16 км ясно +33.3 +8.9 22 +32 +50 жарко 1007.0 1008.7
Ю 1 16 км ясно +34.4 +8.3 20 +33 +49 жарко 1005.8 1007.7
Местоположение метеостанции Imperial County Airport: широта 32.8342 долгота -115.5786 высота над уровнем моря -17 м.
В архиве по умолчанию представлена погода в Империале за последние 1-2 суток. Обновление информации о фактической погоде в базе происходит ежечасно! Архивные данные за месяц целиком и за предыдущие месяцы Вы можете получить, выбрав интересующий диапазон дат из раскрывающегося списка и нажав кнопку "Ввод!".
Внимание! Архив погоды МЕТАР в базе сайта по станциям, не включенным в климатический монитор, хранится не более 60 дней. Нет смысла пытаться выбрать более раннюю дату.
*Определитесь, кто Вы:
Внимание! Время в таблицах - местное (без учета летнего времени). Для получения всемирного времени необходимо вычесть поправку, которая равна -8 ч.
Смотрите также архив погоды в соседних городах и на ближайших метеорологических станциях:
Партнеры нашего сайта:      
Пояснения к столбцам:
  • Ветер - указаны скорость ветра в м/с - средняя за 10 мин, порывы в срок и между сроками (в фигурных скобках) и направление, откуда дует ветер: С - северный,
  • СВ - северо-восточный, В - восточный, ЮВ - юго-восточный, Ю - южный, ЮЗ - юго-западный, З - западный, СЗ - северо-западный.
  • Видимость - горизонтальная дальность видимости в метрах или километрах. При видимости от 1 до 10 км при отсутствии осадков обычно наблюдается дымка, при ухудшении видимости до 1 км и менее - туман. В сухую погоду видимость может ухудшаться дымом, пылью или мглою.
  • Явления - указаны атмосферные явления, наблюдавшиеся в срок или в последний час перед сроком; фигурными скобками обозначены явления, наблюдавшиеся между сроками (за 1-3 часа до срока); квадратными скобками обозначены град или гололедные отложения с указанием их диаметра в мм.
  • Облачность - указаны через наклонную черту общая и нижняя облачность в баллах и высота нижней границы облаков в метрах; квадратными скобками обозначены формы облаков: Ci - перистые, Cs - перисто-слоистые, Cc - перисто-кучевые, Ac - высококучевые, As - высокослоистые, Sc - слоисто-кучевые, Ns - слоисто-дождевые, Cu - кучевые, Cb - кучево-дождевые. Подробнее классификацию облаков см. в Атласе облаков (PDF).
  • T - Температура воздуха - температура, измеренная на высоте 2 м над землей.
  • Td - Температура точки росы - температура, при понижении до которой содержащийся в воздухе водяной пар достигнет насыщения.
  • f - Относительная влажность воздуха - влажноcть воздуха, измеренная на высоте 2 м над землей.
  • Te - Эффективная температура - температура, которую ощущает одетый по сезону человек в тени. Характеристика душности погоды. При расчете учитывается влияние влажности воздуха и скорости ветра на теплоощущения человека.
  • Tes - Эффективная температура на солнце - температура, которую ощущает человек, с поправкой на солнечный нагрев. Характеристика знойности погоды. Зависит от высоты солнца над горизонтом, облачности и скорости ветра. Ночью, в пасмурную погоду, а также при ветре 12 м/с и более поправка равна нулю.
  • P - Атмосферное давление - приведенное к уровню моря атмосферное давление.
  • Po - Атмосферное давление - измеренное на уровне метеостанции атмосферное давление.
  • Tmin - Минимальная температура - минимум температуры воздуха на высоте 2 м над землей.
  • Tmax - Максимальная температура - максимум температуры воздуха на высоте 2 м над землей.
  • R - Количество осадков - Количество выпавших осадков за период времени, мм. При наведении курсора мыши на число - период времени, за который выпало указанное количество осадков.
  • R24 - Количество осадков - Количество выпавших осадков за 24 часа, мм.
  • S - Снежный покров - Высота снежного покрова, см. При наведении курсора мыши на число - состояние снежного покрова и степень покрытия местности в баллах.